Regional Weather Roundup
Issued by NWS Newport/Morehead, NC

Current Version | Previous Version | Text Only | Print | Product List | Glossary On
Versions: 1 2 3 4 5 6 7 8 9 10 11 12 13 14 15 16 17 18 19 20 21 22 23 24 25 26 27 28 29 30 31 32 33 34 35 36 37 38 39 40 41 42 43 44 45 46 47 48 49 50
000 ASUS42 KMHX 260925 RWRMHX WEATHER ROUNDUP FOR EASTERN NORTH CAROLINA NATIONAL WEATHER SERVICE NEWPORT/MOREHEAD CITY NC 500 AM EDT TUE JUL 26 2016 NOTE: "FAIR" INDICATES FEW OR NO CLOUDS BELOW 12,000 FEET WITH NO SIGNIFICANT WEATHER AND/OR OBSTRUCTIONS TO VISIBILITY NCZ015>017-031-032-045>047-102-103-261000- NORTH COAST CITY SKY/WX TMP DP RH WIND PRES REMARKS EDENTON PTCLDY 82 73 75 SW12 29.98F ELIZABETH CITY PTCLDY 79 73 82 SW12 29.96S KITTY HAWK SUNNY 80 73 77 SW9G17 29.96S MANTEO N/A 80 76 87 W14 29.98F $$ NCZ045>047-081-094-103-104-261000- CENTRAL COAST CITY SKY/WX TMP DP RH WIND PRES REMARKS FRISCO PTCLDY 81 76 84 W9 30.01S $$ NCZ095-097-098-100-101-261000- SOUTHERN COAST CITY SKY/WX TMP DP RH WIND PRES REMARKS BEAUFORT PTCLDY 81 75 82 W12 30.02S CEDAR ISLAND NOT AVBL JACKSONVILLE CLOUDY 76 73 91 SW6 30.01S PINEY ISLAND NOT AVBL WILMINGTON CLEAR 78 73 84 SW6 30.02S $$ NCZ011>013-027>030-043-044-078>080-089-090>093-098-261000- COASTAL PLAIN CITY SKY/WX TMP DP RH WIND PRES REMARKS AHOSKIE CLEAR 75 73 91 CALM 29.97S CLINTON PTCLDY 77 74 93 CALM 30.02S ELIZABETHTOWN PTCLDY 77 74 90 S3 30.02S GOLDSBORO PTCLDY 78 77 98 SW8 29.99R GREENVILLE CLEAR 79 73 83 SW9 30.01S HAVELOCK PTCLDY 77 73 87 SW7 30.03R KENANSVILLE NOT AVBL KINSTON CLOUDY 78 73 85 SW8 30.01S NEW BERN PTCLDY 77 73 87 SW5 30.02S RICHLANDS PTCLDY 75 74 96 SW5 30.03R ROCKY MOUNT CLEAR 76 73 91 S6 29.99R WASHINGTON NOT AVBL WHITEVILLE CLEAR 76 72 89 CALM 30.02R $$ AMZ130-135-150-152-154-156-158-170-250-252-270-ANZ085-086-088-633-658-670-261000- MARINE OBSERVATIONS STATION/POSITION TIME TEMP WIND PRES WAVE SWELL AIR SEA DIR/SP/G HT/PER HT/PER (UTC) (F) (DEG/KT/KT) (MB) (FT/S) (FT/S) CHESAPEAKE LIGHT NOT AVBL 64 E VA BEACH 0850 82 80 240/ 19/ 21 1013.5 4/ 5 DUCK 0900 81 62 240/ 16/ 21 1014.0 2 E DUCK 0911 65 N/A 1/ 9 OREGON INLET 0900 81 85 230/ 16/ 18 1014.9 13E OREGON INLT 0900 81 N/A 3/ 4 HATTERAS CG 0900 80 83 230/ 8/ 12 1015.7 DIAMOND BUOY 0850 84 85 250/ 19/ 21 1016.0 5/ 6 CAPE LOOKOUT 0900 82 250/ 15/ 18 1016.3 BEAUFORT LAB 0900 81 83 250/ 7/ 13 1016.0 30 SE NEW RVR IN 0908 83 85 250/ 16/ 21 1016.6 30 SE NEW RVR IN 0825 85 N/A 4/ 5 27 SE WRIGHTSVLE 0908 83 84 230/ 16/ 19 1016.8 5 SE WRIGHTSVLE 0908 81 81 260/ 8/ 10 1017.5 225 S CAPE HAT 0850 83 84 190/ 8/ 10 1018.2 2/ 8 2/ 8 41 SE CHARLESTON 0850 84 86 220/ 14/ 16 1016.4 2/ 4 2/ 9 $$

USA.gov is the U.S. government's official web portal to all federal, state and local government web resources and services.